Voltar ao catálogo

DELTA 1 DEB

AtivoUNKNOWN
NORAD 17000·DEBRIS·🇺🇸 United States

Lançado Jul 29, 1976 de Vandenberg Space Force Base

Loading…

Próximas Passagens (próximas 24 horas)

TLE

AtualizadoSource: Space-Track

Época: Sep 14, 2026, 15:43 UTC

1 17000U 76077EX  26257.65497722  .00003124  00000-0  51329-1 0  9990
2 17000 102.4936 312.1660 0684007 243.3896 280.0609 11.32914500746899

Acompanhe DELTA 1 DEB em tempo real com AllMySat

Download on the App Store